Wind_Speed
51 49 47 46 44 43 43 42 42 42 42 41 41 39 38 36 35 34 33 32 30 28 27 26 26 25 25 24 23 23 23 22 22 23 24 24 24 23 23 23 24 23 21 21 20 20 20 20 20 18 17 19 20 21 21 23 25 27 27 27 26 26 25 25 28 26 20 18 19 18 18 20 21 21 21 21 20 20 20 21 21 21 22 22 22
52 50 48 47 45 44 43 42 42 42 42 42 42 40 40 38 36 35 35 34 32 30 29 28 27 26 26 26 25 24 24 24 24 24 24 25 24 24 24 24 25 24 24 23 22 21 21 21 21 20 19 20 21 22 23 23 26 28 28 29 28 27 27 27 29 30 27 23 22 22 23 25 26 25 25 25 23 23 24 24 24 24 24 24 24
52 50 49 47 45 43 43 42 41 42 42 42 42 41 41 39 38 37 36 35 34 32 31 30 29 28 28 27 27 26 25 25 25 25 25 25 25 25 25 25 25 25 25 24 23 23 23 23 23 22 22 23 23 23 23 24 26 28 29 30 30 29 29 29 30 31 31 28 25 25 25 26 28 27 27 28 27 28 28 27 27 27 27 27 27
52 50 49 47 45 44 44 43 42 42 42 42 42 41 40 40 39 39 38 37 36 34 33 32 31 31 31 30 30 29 28 28 27 27 27 26 26 26 26 26 26 26 26 25 24 24 25 25 24 23 24 25 25 25 25 25 26 28 30 31 32 32 31 31 31 32 34 33 30 28 27 28 29 29 29 29 30 31 31 31 30 30 30 29 29
51 51 49 48 47 46 45 44 43 43 42 42 41 41 40 40 40 39 39 39 38 37 36 35 34 34 33 33 32 31 31 31 30 30 29 28 28 27 27 27 28 28 28 27 26 26 26 25 24 24 25 27 27 26 26 26 26 27 29 30 32 34 34 34 34 34 36 37 35 33 31 31 31 31 31 32 32 33 34 34 34 34 33 33 33
51 51 50 49 48 47 46 45 44 43 42 41 40 40 40 40 39 39 39 39 38 38 38 37 36 36 35 34 34 33 33 32 32 32 31 30 29 29 29 29 29 29 29 29 29 28 27 27 26 26 27 28 28 27 26 26 26 27 28 29 30 32 35 36 37 37 38 39 39 38 37 37 36 34 34 34 35 35 36 37 38 38 38 37 37
51 51 50 50 49 47 46 45 44 42 41 40 39 39 39 39 39 39 38 38 39 39 39 39 37 36 36 36 35 35 35 34 34 33 32 31 31 31 31 30 30 30 30 30 31 31 30 30 29 29 29 29 28 28 28 28 28 28 28 28 28 31 33 35 37 39 40 41 42 42 42 41 41 40 38 38 39 39 39 40 41 41 41 40 40
51 51 51 50 49 48 46 44 43 42 41 40 40 39 39 40 40 39 38 38 39 39 39 38 38 37 37 37 37 37 37 37 36 35 34 33 32 32 32 32 32 32 31 31 31 32 32 32 32 32 32 31 30 30 30 30 30 30 29 29 29 31 33 34 35 37 39 41 43 43 43 44 44 43 42 42 43 42 41 42 44 44 43 43 42
50 50 50 50 49 48 46 44 43 42 42 41 41 40 40 40 40 40 39 39 39 38 38 38 38 38 38 38 38 38 39 39 37 36 35 34 34 34 34 33 33 33 33 33 33 33 33 33 34 34 34 34 33 33 32 32 33 33 32 31 32 33 34 35 35 36 38 40 41 41 42 44 43 42 43 43 43 42 41 43 45 45 44 45 45
49 49 49 49 48 47 46 45 43 42 42 41 40 40 40 40 40 40 40 40 39 39 39 39 40 39 39 38 39 40 40 39 38 37 36 36 35 35 35 35 34 34 35 35 35 35 34 34 34 34 35 36 36 36 35 35 35 35 35 34 35 36 37 38 38 38 38 40 41 41 42 44 42 41 41 41 40 41 41 43 45 44 44 46 47
49 49 49 48 47 46 45 45 44 43 42 41 40 40 40 40 40 40 40 40 40 39 40 40 40 40 40 40 40 41 41 40 39 38 37 37 37 37 37 36 36 36 36 36 36 35 35 35 35 35 35 36 36 36 36 36 36 36 36 37 37 38 40 41 41 41 41 43 44 43 45 46 44 42 42 41 41 42 42 42 44 44 44 46 48
47 47 47 46 46 45 45 44 44 43 42 41 39 39 39 39 40 40 40 40 39 40 40 40 41 40 41 42 42 42 42 40 39 39 38 38 38 38 38 38 38 38 38 37 37 36 36 37 36 36 36 35 35 35 35 35 35 36 36 37 38 39 40 41 42 42 43 45 47 47 48 48 47 45 44 43 43 43 43 43 44 44 44 45 47
45 45 45 45 44 44 43 43 43 42 41 40 39 38 39 39 40 40 40 39 39 39 40 40 41 41 41 42 43 43 43 42 41 41 40 39 39 39 39 39 39 39 39 39 38 38 38 37 38 37 36 35 35 35 35 35 35 35 36 37 38 39 39 40 41 42 43 46 49 50 49 49 49 48 46 45 46 46 46 46 45 45 46 46 47
44 44 43 43 43 42 42 42 42 41 39 39 39 39 38 38 38 39 39 39 39 40 40 40 41 41 42 42 43 43 44 43 42 42 41 40 40 40 40 39 40 40 40 40 39 39 38 38 38 38 36 36 36 36 36 35 35 36 36 37 38 38 38 40 40 41 42 45 48 49 48 48 49 48 47 47 49 49 49 49 49 49 50 48 48
43 42 42 41 40 40 40 41 40 38 38 38 38 38 37 37 37 37 38 38 38 38 39 39 40 40 41 42 42 43 43 42 42 42 41 40 40 40 40 39 40 40 40 40 40 39 39 39 39 38 38 37 37 36 36 36 36 37 38 39 39 39 39 40 40 40 41 43 45 46 46 46 47 46 46 47 50 50 50 51 51 52 51 50 51
42 41 40 39 39 38 38 38 38 36 36 36 37 37 36 35 34 34 35 35 35 35 36 37 38 39 40 41 42 43 42 41 42 41 40 40 40 39 39 39 39 39 39 39 39 39 39 39 40 39 39 38 37 36 36 36 37 39 40 40 41 41 41 41 40 41 41 42 44 45 45 44 44 44 44 45 47 49 50 52 54 53 51 51 54
40 40 39 37 37 37 37 37 36 35 35 36 36 35 34 33 32 32 33 33 33 33 33 34 35 36 38 40 41 41 40 40 41 40 39 39 39 39 39 38 38 39 38 37 37 38 38 39 39 39 39 38 37 36 36 37 39 41 42 43 43 44 45 44 43 42 40 40 41 42 43 43 42 42 42 42 44 46 49 54 56 53 51 52 57
39 40 39 36 34 34 35 35 34 34 35 35 34 33 33 32 30 30 32 32 31 30 30 30 31 32 35 37 38 39 39 38 38 38 38 38 38 38 38 38 38 38 37 37 37 37 38 38 38 39 40 39 37 36 36 38 40 42 43 43 45 47 47 45 45 44 41 40 41 42 42 43 43 43 43 43 44 44 48 53 54 52 53 55 56
38 39 39 37 35 33 34 35 34 34 34 34 33 32 32 31 29 30 31 31 30 30 30 30 30 31 32 33 34 36 37 37 37 36 36 36 37 37 37 37 38 38 37 37 37 37 37 37 37 38 39 38 37 37 37 37 40 41 42 44 48 48 46 46 46 45 42 42 44 45 44 44 44 45 45 45 46 46 48 52 53 53 57 58 53
35 36 37 37 37 36 35 35 35 35 34 33 32 32 32 31 31 31 32 32 31 32 32 32 32 31 31 31 32 33 35 35 35 34 34 35 35 35 36 37 38 37 37 37 37 37 37 37 37 37 38 38 38 37 37 38 39 40 42 45 49 47 46 46 44 40 38 41 45 47 47 47 48 50 50 50 50 50 50 52 53 53 56 58 54
34 35 36 37 38 38 38 37 36 35 34 34 33 34 34 33 32 32 32 32 33 33 34 34 34 32 31 31 31 31 32 33 33 32 32 33 33 34 35 36 36 36 36 37 37 37 38 37 37 36 36 36 36 35 36 36 38 40 42 45 47 46 45 46 44 39 36 39 43 46 47 48 50 52 53 53 53 53 53 53 53 52 52 54 55
33 34 36 37 39 39 39 38 37 36 35 35 36 36 35 35 34 34 34 34 34 34 35 35 35 35 33 32 32 31 31 32 32 31 31 31 31 32 33 34 34 34 35 36 37 37 36 35 34 33 32 33 33 33 34 35 37 40 41 42 43 43 44 45 44 40 38 39 40 42 42 43 46 49 51 53 53 52 53 53 53 52 50 51 51
26 28 31 33 35 36 37 37 38 37 36 36 36 37 36 36 36 36 36 37 37 36 36 36 37 37 35 34 33 32 31 31 32 32 31 31 31 31 32 32 31 32 34 35 35 33 32 31 31 31 30 31 31 32 33 33 34 35 36 37 39 40 42 40 34 31 34 36 38 39 39 40 43 45 46 47 47 47 48 49 49 50 50 51 51
16 18 20 23 25 28 29 31 32 33 34 34 35 36 36 36 37 37 38 38 39 38 37 37 37 37 37 35 34 32 31 30 30 31 31 30 31 31 31 30 29 29 31 31 30 30 30 30 30 30 30 30 31 31 32 32 33 34 35 37 38 38 39 34 24 22 29 33 34 36 38 39 42 44 45 46 46 48 51 51 50 50 51 52 54
13 13 14 15 17 20 22 24 25 27 28 29 31 32 33 34 36 37 38 39 39 39 38 37 38 37 36 35 34 32 30 29 29 30 30 30 30 30 29 28 26 26 27 27 27 28 29 29 29 30 30 30 31 32 33 34 35 35 36 37 37 38 40 36 27 26 32 35 35 38 40 42 44 46 47 48 49 51 53 53 52 52 52 52 52
12 13 13 14 15 16 18 21 23 23 24 25 26 27 28 29 31 32 35 37 38 39 38 38 37 37 36 35 33 31 30 29 29 29 29 29 29 28 27 26 23 23 24 25 25 25 26 28 29 30 30 31 32 33 34 34 35 36 36 37 37 38 39 36 29 28 33 37 38 40 42 42 42 42 42 42 43 45 46 47 49 50 52 53 51
11 12 13 14 16 17 18 20 22 23 24 24 25 26 26 26 27 29 32 34 36 37 37 37 37 36 36 35 33 31 29 28 28 28 27 27 27 27 26 25 24 23 24 24 23 24 26 28 29 30 30 31 33 34 34 33 34 34 34 34 34 34 33 31 28 27 29 32 33 34 35 34 34 36 37 37 40 42 44 46 49 52 53 52 50
11 11 11 12 15 17 19 20 21 23 25 26 27 27 27 27 27 27 28 29 31 32 33 34 33 33 33 32 31 30 28 27 26 25 24 24 23 24 25 24 24 23 23 23 23 24 25 26 27 28 29 30 31 31 31 30 29 29 30 30 30 30 28 26 24 23 23 24 25 27 29 31 33 36 38 39 42 44 45 46 49 51 51 48 48
10 11 11 10 11 15 18 19 21 23 25 26 28 28 28 28 27 27 26 26 27 28 29 29 28 27 27 28 28 27 26 24 22 21 20 20 20 20 20 20 21 21 22 22 22 22 23 24 25 26 26 26 26 26 26 26 26 27 28 28 27 25 24 22 20 20 21 23 24 25 27 28 30 31 33 35 36 37 37 40 43 45 44 44 47
11 11 11 10 9 11 14 17 19 21 23 25 26 27 28 28 28 27 27 27 26 25 25 26 25 23 23 23 23 23 22 20 17 17 17 17 17 17 17 17 18 20 20 20 20 20 21 22 22 22 22 22 23 24 25 25 26 25 24 23 22 21 21 21 21 21 23 23 23 22 21 22 23 24 26 28 29 29 30 33 37 39 38 39 42
11 10 10 10 9 9 11 13 15 18 20 22 24 25 27 27 27 27 27 26 25 24 23 23 21 20 19 19 19 19 18 16 15 15 16 16 17 17 16 16 17 18 18 18 18 18 19 19 19 20 20 21 22 23 23 22 21 20 19 18 19 19 20 20 21 22 21 18 17 17 20 22 24 26 27 29 30 30 31 32 34 36 36 36 37
10 9 9 10 9 9 10 12 13 15 18 21 23 24 25 26 26 26 25 24 23 22 22 21 19 18 17 17 17 16 15 15 16 16 15 15 16 16 17 17 17 17 17 17 17 17 17 17 18 18 19 19 19 18 16 15 15 16 16 16 17 18 19 20 19 17 15 15 16 19 22 24 26 27 29 30 31 31 31 31 32 33 33 33 33
10 10 9 9 10 10 11 12 13 14 16 19 21 23 23 24 24 24 23 22 22 22 21 20 19 18 18 18 17 16 15 16 17 17 17 16 15 16 17 17 16 16 16 16 16 16 16 15 15 15 15 14 13 12 11 12 12 13 14 15 15 16 17 15 13 11 14 18 21 23 25 26 27 27 28 29 29 29 29 30 29 29 29 30 31
10 11 10 9 10 12 12 13 13 14 15 17 19 20 21 21 21 21 21 21 21 22 21 20 19 18 18 18 17 16 15 14 14 16 17 16 15 16 16 16 16 15 15 14 14 13 12 12 11 10 9 8 8 9 9 9 9 10 11 12 13 13 12 10 10 13 18 21 23 24 25 26 27 28 29 29 28 27 27 28 28 28 27 27 28
10 12 12 11 11 12 14 14 14 14 16 17 18 20 20 20 20 20 20 19 19 20 20 19 17 15 15 15 15 14 13 12 11 13 15 16 16 16 15 14 13 12 11 10 10 8 8 7 7 6 6 6 7 7 6 7 8 9 10 11 12 11 9 10 13 18 20 22 23 24 24 24 25 27 28 29 28 27 27 28 29 29 27 24 22
12 12 13 13 12 12 14 15 15 15 16 18 19 20 21 21 21 21 20 19 18 18 18 17 15 13 13 14 14 13 13 12 12 13 15 15 14 13 11 10 8 8 8 8 8 7 7 6 5 5 4 4 4 4 6 7 8 9 10 10 10 9 10 13 17 19 20 21 21 20 20 22 25 27 27 28 28 27 27 27 26 24 22 20 17
15 13 13 14 14 13 14 15 17 18 18 19 20 21 22 23 23 23 22 21 19 18 17 16 15 15 15 15 14 14 13 13 13 13 12 11 10 8 7 6 6 7 8 8 7 6 5 4 3 2 2 3 4 5 6 7 8 9 9 9 9 10 12 15 17 18 18 18 17 18 20 24 26 27 27 27 26 25 23 22 20 17 14 13 13
16 16 14 14 14 14 14 15 17 19 20 21 22 22 23 24 24 24 23 21 19 18 18 18 18 18 19 18 17 15 14 13 12 11 10 9 8 8 8 8 8 8 8 7 6 5 3 2 1 1 2 4 5 5 6 6 7 8 8 7 8 10 13 14 14 15 15 14 15 17 21 23 24 24 25 24 23 21 19 17 16 16 16 17 20
17 17 15 13 14 15 15 16 17 20 22 23 23 23 24 25 26 26 25 23 21 21 21 21 22 21 20 20 18 16 14 12 11 11 11 11 11 10 9 9 9 8 7 6 5 4 3 2 2 3 3 4 5 5 5 6 7 7 7 7 8 11 12 12 13 13 12 11 14 17 18 18 18 19 20 20 19 17 16 15 16 18 19 21 23
18 18 16 14 14 15 16 17 19 21 23 24 24 25 27 27 26 25 24 23 23 22 21 21 20 18 16 15 14 13 12 12 13 13 13 13 13 12 11 10 8 7 6 6 5 5 4 4 3 3 4 5 5 5 5 6 6 6 7 8 10 12 13 14 14 13 11 12 14 16 17 17 16 16 15 15 15 15 15 15 17 18 19 20 22
19 19 18 16 15 15 17 17 18 20 25 28 28 28 29 29 27 24 22 20 20 19 19 18 17 16 15 14 14 13 12 14 15 15 14 13 13 12 12 10 8 7 7 7 6 6 5 4 4 4 4 5 4 4 5 5 6 8 9 10 13 15 16 17 16 15 14 14 15 17 19 19 18 17 15 13 13 14 14 15 15 15 15 16 17
20 20 20 19 17 16 17 16 15 17 22 26 27 26 25 24 23 22 20 19 19 20 20 20 19 19 19 17 16 14 13 14 15 14 13 13 13 12 11 9 8 8 8 7 6 5 4 3 3 2 3 3 3 3 4 6 8 10 10 12 13 14 14 14 15 14 14 15 16 17 18 19 19 18 17 14 13 12 11 11 12 12 12 13 13
21 21 20 20 18 17 17 16 16 18 20 21 22 22 22 20 20 20 20 22 24 24 24 23 22 21 20 19 17 15 15 15 14 14 13 13 13 12 11 10 9 9 8 7 6 5 3 2 2 1 1 1 2 2 3 6 8 9 10 10 10 10 10 10 11 11 11 12 14 15 15 15 16 16 16 15 14 13 12 11 11 9 8 9 9
20 21 21 21 21 20 20 21 21 21 21 20 20 22 23 22 23 24 26 28 28 27 25 24 24 23 23 21 19 18 17 16 15 14 14 13 12 12 11 11 10 10 9 9 8 6 5 5 4 3 2 2 3 4 4 5 6 7 7 6 6 7 7 6 6 7 7 9 10 12 12 12 11 11 11 12 11 11 10 10 11 10 9 8 8
21 22 22 22 23 24 24 25 25 24 23 23 24 25 25 25 27 29 30 30 29 27 26 25 25 24 23 22 20 18 17 16 15 14 13 11 10 10 11 10 10 10 11 10 10 9 8 8 7 6 6 6 7 7 6 6 6 6 5 5 5 5 5 4 3 3 3 5 7 9 10 9 9 9 10 10 9 9 8 7 8 8 8 8 8
23 24 24 24 25 26 27 27 27 27 27 27 28 29 30 31 31 31 31 31 29 28 27 26 25 23 21 19 17 15 14 13 12 11 10 8 8 8 9 10 10 10 9 9 9 9 8 8 8 8 9 9 10 10 10 9 8 8 8 8 7 7 6 5 4 2 1 3 5 7 8 8 9 9 9 9 9 9 8 7 7 7 7 7 7
26 26 27 28 28 29 29 29 31 32 32 33 33 34 35 34 33 32 31 30 29 27 26 24 23 20 18 17 15 13 12 11 9 8 8 7 6 7 8 8 8 7 7 6 6 6 7 8 8 8 9 9 10 11 11 11 10 10 10 10 10 9 9 8 7 5 4 3 4 5 7 8 8 9 9 9 8 8 8 7 7 7 7 7 7
30 30 31 33 34 34 34 34 35 35 35 35 35 35 34 33 32 31 29 27 26 25 24 22 21 19 17 16 14 13 11 10 8 7 7 7 8 8 8 7 7 7 6 6 5 6 7 7 8 7 7 8 9 10 11 11 10 10 10 10 11 10 10 10 8 7 5 4 3 4 5 6 8 9 9 8 7 7 8 8 7 7 6 6 6
28 30 33 35 36 36 35 34 35 35 35 34 33 32 31 30 29 28 27 26 25 24 23 22 21 20 18 16 15 14 13 12 10 10 10 9 9 9 8 8 7 7 8 8 8 8 7 7 7 7 7 8 8 9 9 10 10 10 10 10 10 10 10 10 9 7 6 4 4 3 4 4 6 7 8 9 9 9 9 9 9 8 8 8 7
25 27 30 33 35 35 33 32 32 33 33 32 32 31 30 29 28 28 27 26 25 24 23 23 22 21 19 18 16 15 14 13 13 12 11 10 10 9 9 9 9 9 9 10 10 10 10 9 9 9 9 9 9 9 9 9 10 10 10 10 10 10 9 9 8 7 6 5 4 4 3 3 4 5 7 8 9 10 10 11 11 10 10 9 9
20 22 24 27 28 29 29 29 29 30 30 30 29 29 28 27 27 26 26 25 25 24 23 23 22 21 20 18 17 16 15 13 12 11 10 9 9 9 9 9 10 10 11 12 12 12 12 13 12 12 12 12 11 10 10 10 11 11 11 11 11 10 10 9 8 8 7 6 6 5 5 4 4 5 6 8 9 10 11 11 12 12 11 10 9
Wind_Direction
221 223 225 226 228 229 230 231 231 232 233 233 233 232 231 231 232 233 235 237 237 235 234 233 231 231 232 235 236 235 233 229 228 229 232 235 236 238 239 240 244 248 248 246 244 243 243 244 247 247 244 243 242 242 243 243 243 243 244 244 244 247 248 250 255 261 264 263 260 260 262 263 262 261 262 262 261 260 260 261 263 265 267 267 268
221 223 225 226 228 230 232 232 233 234 234 235 234 233 232 231 231 233 234 236 237 236 235 235 235 234 233 234 235 235 234 232 231 232 233 235 236 238 239 240 243 246 248 247 246 245 245 246 247 248 248 248 246 245 244 243 244 246 247 248 248 248 249 250 254 260 266 268 266 266 266 265 265 264 265 267 267 267 266 264 263 264 265 267 268
222 223 224 226 229 230 232 233 234 235 235 236 236 235 233 232 232 233 233 235 236 236 236 237 238 238 236 235 236 237 236 234 233 234 235 236 237 238 239 240 243 245 248 250 250 249 249 250 250 250 250 251 250 248 247 245 244 245 248 250 252 252 251 251 253 257 264 268 269 268 268 268 268 269 269 271 271 270 269 268 267 267 267 267 267
221 223 224 227 229 230 231 233 234 235 236 237 237 236 235 234 234 234 234 235 236 237 238 239 240 241 240 239 240 241 239 237 236 237 239 240 240 241 241 242 244 246 249 252 253 253 254 254 254 254 254 255 254 253 252 249 247 247 248 249 252 254 255 254 254 257 261 265 268 267 267 268 270 271 272 271 271 270 270 270 269 268 268 268 268
220 222 224 227 228 229 230 232 233 235 236 237 237 237 236 236 235 235 235 236 236 237 239 241 242 242 241 241 242 242 241 240 240 241 242 243 243 244 244 245 246 247 249 252 253 254 255 256 258 258 257 258 258 258 257 256 254 252 252 252 253 255 257 258 259 259 261 265 269 270 269 268 269 270 271 272 272 272 271 271 271 270 271 270 269
219 221 224 226 228 230 231 232 234 235 236 237 238 238 237 237 237 237 237 237 237 238 240 241 242 243 242 242 242 242 243 243 243 244 245 245 246 246 246 247 248 250 250 251 252 253 255 257 259 259 259 260 261 261 261 261 261 260 259 259 259 259 259 260 261 262 263 266 270 272 272 272 271 271 271 272 273 273 273 273 272 271 270 271 271
219 221 223 225 227 230 231 233 234 235 237 238 238 238 237 237 237 237 238 239 239 240 240 241 242 243 243 244 244 244 245 245 245 246 246 247 247 247 248 249 250 251 252 252 253 253 254 256 258 259 260 262 263 264 264 264 264 264 265 266 266 265 265 264 263 264 265 267 270 272 274 275 275 275 275 274 274 273 272 271 271 272 271 272 273
219 221 222 224 226 229 231 233 235 236 237 238 238 239 238 238 238 238 238 239 240 241 241 241 242 243 244 246 247 248 249 249 248 248 248 248 248 248 249 250 251 252 253 253 254 254 255 256 257 258 259 261 263 265 265 266 267 267 268 268 268 268 269 269 268 267 268 269 271 273 275 276 276 277 277 276 274 273 273 272 273 275 275 274 275
219 220 221 224 227 229 231 233 235 236 237 238 239 239 239 239 239 239 239 240 241 242 242 243 244 244 245 246 247 250 251 251 250 249 249 249 249 250 250 251 253 254 255 256 256 257 257 257 258 259 260 261 262 264 265 266 268 269 269 269 269 269 270 270 270 270 271 271 272 274 275 275 276 276 276 275 275 276 277 277 276 277 278 277 277
219 220 222 225 228 230 230 232 234 235 237 238 240 240 240 240 240 240 240 240 241 242 243 244 245 246 246 246 248 250 251 251 251 251 251 251 252 253 254 254 256 256 258 259 259 260 260 260 261 261 262 263 264 264 265 265 266 268 269 270 270 270 271 271 270 271 271 272 273 274 274 273 274 276 276 277 279 280 279 278 278 279 279 278 277
220 222 224 227 229 229 231 232 233 235 237 239 240 241 241 241 241 242 242 242 242 243 244 245 246 247 248 248 249 250 250 250 251 252 253 254 254 256 257 258 259 260 261 262 263 264 264 265 265 265 266 266 266 266 266 266 266 267 268 269 270 270 272 273 273 273 272 272 273 273 273 274 275 277 278 279 280 280 280 280 281 281 280 279 279
219 222 225 227 229 230 232 233 234 236 237 238 240 242 243 243 243 243 243 244 244 244 245 246 247 248 249 250 251 251 251 251 252 253 254 255 256 257 259 260 261 263 264 265 267 268 269 269 270 270 270 270 269 270 270 269 269 269 269 270 270 271 272 272 273 274 273 274 275 275 274 276 278 279 279 281 282 282 283 283 282 283 282 281 281
219 222 226 228 230 232 234 235 236 237 239 240 241 243 243 244 244 244 245 245 246 246 247 247 248 248 249 250 251 253 253 254 254 254 255 256 257 258 259 261 263 264 266 268 269 271 272 272 273 273 273 273 274 274 273 273 274 273 273 273 272 272 273 273 273 273 273 274 274 275 276 277 279 281 283 285 284 284 284 284 284 284 283 283 284
221 225 228 230 232 234 235 236 238 239 241 242 242 243 244 245 246 246 247 247 247 248 248 248 249 249 250 251 252 254 255 256 256 257 258 259 259 260 261 262 263 265 267 268 270 272 273 273 274 275 276 276 276 277 277 278 278 278 279 277 276 276 275 275 274 274 274 274 275 277 280 280 282 285 288 287 285 285 285 286 287 286 285 286 288
222 227 230 231 233 234 235 236 238 240 242 242 243 244 245 246 247 247 247 247 248 250 250 251 251 251 252 253 254 255 256 257 258 259 260 261 261 262 262 263 264 266 267 268 270 272 273 274 275 276 277 277 278 279 280 281 282 282 282 281 281 282 280 279 279 279 279 278 279 281 284 284 285 287 289 288 286 286 286 286 287 285 283 283 284
224 227 230 231 233 234 235 237 239 240 241 242 242 243 244 246 247 247 247 248 249 250 251 251 252 253 254 254 255 256 257 257 258 260 261 262 262 262 263 263 264 266 267 268 270 271 272 273 274 275 277 278 279 280 282 283 283 283 283 283 284 284 284 284 285 285 285 286 286 286 288 288 288 288 289 287 286 286 285 284 282 279 276 277 278
225 227 230 232 234 235 236 238 239 241 241 241 242 243 244 245 246 246 246 247 248 248 249 250 251 253 254 254 255 257 258 258 259 260 262 262 262 262 263 264 265 266 267 269 269 270 271 272 273 275 277 278 280 282 283 283 282 282 283 284 284 284 285 286 286 288 290 292 293 292 293 293 291 290 290 287 285 283 279 277 278 274 271 271 273
228 229 230 233 236 238 239 240 240 241 241 242 243 244 245 246 246 247 247 248 249 250 250 252 253 253 254 254 256 258 260 260 261 261 262 262 262 263 264 265 266 267 268 269 270 270 272 273 274 275 276 279 281 283 284 283 283 283 284 285 285 284 285 286 287 290 292 293 293 292 292 293 291 290 289 286 285 282 274 274 277 273 267 267 268
231 232 234 236 238 239 241 242 242 243 243 244 246 246 246 247 248 248 249 250 251 252 252 253 253 254 255 256 257 259 260 261 262 262 263 263 262 263 264 265 266 267 268 270 270 271 272 273 275 275 277 280 281 282 283 282 281 282 283 283 282 283 286 287 285 285 286 289 291 290 289 290 289 288 287 284 285 283 276 276 276 270 266 265 264
237 238 239 241 241 240 241 242 243 244 245 246 248 248 248 249 249 249 250 252 253 253 252 253 254 255 256 257 258 259 260 262 262 263 263 263 263 263 263 264 265 267 269 270 271 273 274 274 276 277 279 282 283 283 283 281 282 283 282 280 280 285 290 288 280 277 282 289 291 288 287 289 288 286 286 285 285 284 281 279 277 272 269 267 262
238 240 241 243 243 243 242 243 244 246 248 249 250 249 250 250 250 251 252 253 253 253 253 253 254 255 256 257 259 260 261 262 263 264 264 264 264 264 263 264 266 268 271 272 273 275 277 279 281 283 286 289 289 289 289 287 287 287 285 284 285 289 292 285 275 275 285 291 290 287 287 288 288 286 285 285 285 286 285 283 280 276 273 269 265
238 240 241 242 243 244 245 245 246 247 249 250 250 250 251 251 251 252 252 253 253 254 254 254 254 255 256 256 258 260 261 263 264 265 265 265 265 265 265 267 269 271 272 274 274 277 280 283 286 289 291 291 291 291 291 290 289 288 288 291 292 292 291 284 275 277 288 292 289 289 288 289 289 287 285 286 288 290 289 287 284 281 277 273 270
236 239 242 243 245 246 247 248 249 249 249 250 250 250 251 251 251 251 251 252 252 253 254 254 253 254 255 255 257 259 261 263 264 265 265 265 265 265 266 268 270 270 271 272 274 278 281 284 286 287 287 287 287 288 288 288 288 288 290 292 291 290 291 285 276 279 290 291 288 288 290 291 292 292 292 293 296 297 295 293 290 286 282 280 278
223 229 235 239 243 246 248 250 250 250 251 250 249 249 249 250 251 251 251 251 251 251 252 253 252 253 254 255 257 259 261 263 264 266 266 266 266 266 267 268 268 267 268 271 274 277 279 280 281 282 282 283 285 287 288 287 287 287 288 290 291 291 291 289 288 295 299 296 294 295 296 297 297 298 298 299 299 297 296 294 292 289 285 283 281
221 225 230 234 240 245 248 250 251 252 252 250 248 247 247 247 248 249 249 250 250 250 251 252 252 253 254 256 258 259 261 263 264 266 266 266 267 266 266 266 265 265 266 269 271 273 275 276 277 279 281 283 285 286 287 287 289 291 292 293 294 294 294 296 304 310 305 302 302 300 299 298 298 297 297 298 297 296 295 295 294 291 288 284 279
235 237 238 239 241 243 245 247 248 250 251 251 251 250 248 247 247 248 248 249 249 250 251 251 252 253 254 256 258 260 262 263 264 265 265 265 265 264 263 262 261 260 261 263 265 268 271 273 276 279 281 283 284 285 287 289 291 292 293 294 295 295 295 297 303 307 305 303 302 300 299 299 299 298 299 298 297 297 296 296 294 291 288 284 280
257 255 251 248 246 243 242 241 241 243 244 246 249 249 248 247 247 247 247 247 248 249 249 250 252 253 254 256 258 260 261 262 263 263 263 263 263 262 260 259 257 256 258 260 261 263 267 272 275 278 280 281 283 286 287 288 289 291 292 294 295 296 297 299 304 308 307 305 304 303 303 304 303 304 304 302 300 300 299 296 293 291 289 287 282
273 273 269 260 251 246 244 242 240 240 240 240 242 244 244 244 244 246 247 248 250 251 251 252 254 255 257 258 259 259 259 259 260 262 263 263 263 261 259 258 257 256 257 258 259 261 265 268 270 272 275 277 279 282 283 284 287 290 292 293 294 297 300 304 308 311 311 310 308 308 309 309 308 307 306 303 301 302 300 297 294 292 291 289 285
278 281 282 275 258 247 245 243 241 240 239 239 239 239 239 240 241 244 246 248 250 253 255 256 258 261 262 262 261 260 259 259 261 263 263 261 259 258 258 257 254 253 253 254 256 260 262 264 265 267 271 273 275 278 280 284 286 288 289 292 295 299 304 306 309 310 312 313 314 313 312 311 309 308 307 304 303 304 304 301 299 296 292 289 287
280 283 286 287 277 260 251 246 242 240 240 240 239 238 238 238 239 241 244 245 247 250 252 255 259 261 263 263 262 261 262 263 262 258 256 254 252 250 251 252 252 252 252 253 255 256 257 259 262 266 270 273 275 278 281 283 285 287 291 296 299 302 305 307 311 316 318 320 321 322 322 323 324 325 324 319 318 318 317 313 309 303 295 290 288
285 285 285 288 289 281 269 257 247 242 240 241 240 239 238 238 238 239 241 243 244 246 248 250 253 254 256 258 260 260 258 256 252 248 248 249 248 246 247 249 252 252 251 250 249 250 252 257 262 267 271 274 277 279 282 285 289 293 297 301 304 306 309 313 319 323 324 325 329 334 339 341 341 340 337 332 329 328 327 324 319 313 304 297 294
287 287 285 285 289 288 280 269 259 251 244 241 240 239 239 239 238 238 238 239 239 240 242 244 245 246 246 248 252 254 252 246 242 243 245 246 245 244 245 246 246 246 245 244 245 248 252 258 263 268 271 274 277 281 286 291 297 301 303 306 309 313 319 325 329 330 331 334 339 343 346 347 345 343 340 335 331 330 331 331 328 323 314 305 300
287 283 281 279 281 283 281 274 265 259 253 247 242 240 239 239 239 238 236 234 232 233 234 236 238 240 240 241 242 243 244 245 242 240 240 239 239 239 241 241 240 240 241 243 247 252 257 262 265 267 269 273 277 283 291 298 303 307 311 316 322 328 333 337 338 339 342 344 346 348 349 348 347 345 343 339 337 335 336 338 339 334 324 314 307
290 281 281 279 276 275 276 275 269 262 256 251 246 242 240 238 237 237 234 232 231 231 231 231 233 237 240 240 237 234 237 242 243 238 234 232 231 232 233 234 236 238 243 249 254 257 258 257 257 258 260 267 277 286 296 304 311 318 324 331 341 345 344 343 342 343 345 347 349 350 351 350 349 348 348 348 346 342 342 348 352 348 339 327 316
295 282 280 282 281 275 272 271 270 264 256 250 245 242 239 235 233 233 234 235 236 234 229 227 229 233 232 228 225 226 231 232 228 225 225 224 224 225 225 229 235 239 243 246 244 241 237 233 234 240 250 266 281 295 310 323 332 339 343 350 356 355 347 343 345 346 347 348 350 352 353 353 354 355 355 354 353 350 351 357 360 354 347 340 330
300 284 277 277 279 277 271 267 265 262 257 250 244 240 236 234 232 231 231 233 236 233 225 219 217 215 209 206 207 211 215 214 213 215 219 220 221 222 224 229 234 230 223 218 213 207 207 211 220 238 261 284 306 331 347 352 354 355 358 2 3 357 347 345 348 350 351 353 356 0 3 5 6 5 4 2 0 360 2 4 4 359 353 351 351
300 288 278 273 270 268 270 268 262 256 251 245 241 237 233 231 229 227 226 227 226 221 214 209 207 202 195 194 198 200 200 200 202 205 209 211 212 212 211 209 209 204 197 191 189 191 197 208 227 262 311 344 3 8 6 5 4 2 6 11 7 356 351 352 354 355 356 0 7 12 13 14 13 11 10 8 6 7 8 10 15 21 24 29 43
294 289 283 275 266 260 262 265 262 255 246 239 234 232 230 227 225 224 222 219 216 214 211 207 205 202 197 193 192 191 191 193 194 194 197 198 196 193 188 181 180 183 182 178 180 188 194 198 184 51 37 27 22 21 20 17 10 6 12 17 8 359 0 1 358 358 3 13 19 15 11 13 14 14 14 15 13 13 18 25 39 58 70 75 81
287 286 283 278 270 261 255 254 258 255 245 236 232 229 227 224 221 218 215 212 208 206 202 196 192 191 190 187 183 179 181 187 190 191 191 187 178 171 168 168 168 171 175 177 178 177 165 145 119 81 56 41 34 36 34 22 15 17 27 28 19 13 12 9 5 8 15 18 13 8 8 13 18 19 21 22 22 25 36 51 66 78 84 87 91
276 276 276 272 268 264 256 252 254 252 243 235 230 226 220 215 210 203 199 198 197 193 187 183 180 177 178 177 173 170 173 176 176 177 177 172 163 157 158 162 165 165 170 175 172 163 150 137 117 83 61 52 47 46 39 30 32 43 47 46 43 40 38 36 35 34 31 22 17 20 24 27 28 28 30 36 41 46 58 73 83 89 91 93 98
270 267 267 266 264 262 259 255 254 249 236 225 219 216 211 206 201 195 191 192 193 187 179 174 168 162 159 158 155 158 165 167 163 163 162 158 156 156 157 160 161 160 163 164 161 154 146 133 112 80 62 57 55 50 47 51 61 67 68 70 70 64 58 57 56 53 49 43 40 40 40 39 38 37 39 48 58 64 70 77 80 81 83 85 91
266 259 258 259 257 254 249 246 243 233 221 212 208 206 202 196 194 195 194 192 189 179 168 160 154 149 146 144 143 148 158 159 156 155 155 154 156 159 160 160 159 157 157 157 154 150 146 139 120 79 61 63 65 66 73 81 85 87 88 89 85 76 67 64 62 58 55 50 46 43 43 43 43 41 39 41 47 51 54 57 56 55 58 63 67
262 256 251 248 247 242 234 224 214 207 206 206 205 202 194 183 179 184 183 176 170 163 155 150 147 143 140 139 142 149 155 155 152 152 152 152 155 160 163 164 163 159 158 160 159 159 165 181 195 215 71 93 112 121 117 111 107 103 102 100 95 87 79 72 67 60 52 46 41 40 39 38 38 39 41 41 40 37 37 40 43 46 53 60 67
250 249 244 238 235 229 218 208 201 198 197 195 190 186 182 175 171 171 169 163 158 154 149 145 143 142 142 143 148 153 154 152 151 152 151 149 152 158 165 171 174 175 176 179 183 192 208 220 224 230 226 196 184 180 166 148 135 128 122 118 112 107 100 91 77 61 47 36 29 27 26 25 24 24 25 29 31 32 35 37 37 39 44 50 58
233 235 233 228 225 218 207 198 194 192 188 182 176 171 170 168 165 164 163 160 157 154 150 148 148 150 150 150 152 154 154 153 154 157 157 154 153 158 167 176 182 187 193 198 204 214 227 234 233 229 223 211 202 199 197 189 176 167 165 167 165 158 146 134 113 75 35 14 8 7 9 12 10 2 356 358 3 7 9 10 9 12 19 22 26
215 213 212 211 209 205 199 192 186 181 175 170 167 165 163 163 162 162 162 161 159 157 155 154 155 155 154 153 155 158 159 160 163 165 167 167 165 168 175 183 188 194 199 207 216 228 239 244 243 236 229 219 209 205 206 206 203 201 201 202 204 203 198 193 194 207 269 329 343 348 351 353 354 350 344 342 343 344 345 345 344 342 343 345 350
200 193 190 188 184 180 178 177 176 172 166 163 162 161 160 160 161 161 160 160 160 159 157 157 158 159 159 160 162 164 165 169 175 179 182 184 184 185 187 193 198 205 210 218 231 241 244 244 241 237 232 227 220 215 214 215 216 217 217 215 214 216 216 214 217 226 242 274 312 330 338 343 345 344 341 337 334 332 332 334 337 337 336 337 340
184 179 176 175 170 164 161 161 161 161 159 157 156 156 155 155 157 157 157 159 160 160 160 162 164 165 166 166 166 168 173 179 187 194 197 196 194 194 196 201 210 221 230 236 244 248 247 243 241 238 236 234 232 227 224 222 222 223 224 221 219 219 219 218 219 226 238 257 286 315 332 341 345 345 343 341 340 340 338 336 333 329 322 320 321
157 161 161 161 159 156 155 154 153 151 151 151 151 152 153 154 157 158 160 162 163 163 164 166 167 168 171 172 173 177 182 186 192 198 201 201 201 203 207 215 224 235 241 244 247 251 251 249 249 246 241 239 239 237 234 231 228 225 225 223 220 218 218 220 222 225 233 251 275 297 320 337 345 346 344 343 342 341 339 336 332 327 318 310 304
124 131 136 141 143 145 147 148 146 146 149 150 150 151 153 155 156 157 160 163 164 164 166 168 169 170 173 176 178 181 185 187 191 194 198 203 207 211 217 227 236 242 244 246 250 255 258 258 257 252 247 244 243 239 235 233 231 229 227 226 224 222 223 226 230 232 237 248 262 277 295 320 338 340 338 337 336 335 332 330 328 325 319 313 306
115 116 120 124 130 136 140 141 141 142 146 148 149 150 152 154 155 157 161 164 166 165 166 168 170 170 172 175 178 182 185 187 190 194 200 208 215 220 226 234 239 243 247 251 255 259 260 259 258 255 250 246 243 238 232 229 229 231 231 229 229 229 231 233 238 242 246 252 260 268 279 294 311 321 323 322 322 323 324 322 322 323 321 318 313
Height
1502 1505 1508 1511 1514 1517 1519 1522 1525 1528 1530 1533 1535 1537 1539 1542 1544 1546 1549 1551 1553 1555 1557 1559 1561 1562 1564 1565 1566 1567 1568 1569 1570 1571 1571 1572 1573 1574 1574 1575 1575 1576 1577 1577 1578 1579 1579 1580 1580 1581 1582 1582 1582 1582 1583 1583 1584 1585 1586 1586 1587 1587 1588 1588 1587 1585 1584 1585 1586 1586 1586 1586 1586 1586 1586 1586 1586 1586 1586 1585 1585 1585 1585 1584 1584
1499 1502 1506 1509 1511 1514 1517 1520 1523 1525 1528 1530 1532 1534 1536 1539 1541 1544 1546 1548 1550 1553 1555 1556 1558 1560 1561 1562 1563 1564 1565 1566 1567 1568 1569 1569 1570 1571 1572 1573 1573 1574 1574 1575 1576 1577 1577 1578 1578 1579 1580 1580 1580 1581 1581 1582 1582 1583 1584 1584 1585 1586 1586 1586 1585 1584 1582 1583 1584 1584 1584 1584 1583 1583 1584 1584 1584 1584 1584 1583 1583 1583 1583 1582 1582
1496 1500 1503 1506 1509 1512 1515 1517 1520 1522 1524 1526 1529 1531 1534 1536 1539 1541 1543 1545 1548 1550 1552 1554 1556 1557 1558 1560 1561 1562 1563 1564 1565 1566 1566 1567 1568 1569 1570 1570 1571 1571 1572 1572 1573 1574 1575 1576 1576 1577 1578 1578 1578 1578 1579 1580 1580 1581 1582 1583 1583 1584 1585 1584 1584 1582 1580 1580 1581 1581 1582 1581 1581 1581 1582 1582 1582 1582 1581 1581 1581 1580 1580 1580 1579
1494 1497 1500 1503 1506 1509 1512 1514 1517 1519 1521 1523 1526 1528 1531 1533 1536 1538 1540 1542 1544 1547 1549 1551 1553 1554 1555 1556 1557 1559 1560 1561 1562 1563 1563 1565 1566 1566 1567 1568 1568 1569 1569 1570 1571 1572 1573 1573 1574 1575 1576 1575 1575 1576 1577 1577 1578 1579 1579 1581 1581 1581 1582 1582 1581 1580 1579 1577 1578 1579 1580 1579 1579 1579 1580 1579 1579 1579 1578 1578 1578 1577 1577 1577 1576
1491 1494 1497 1500 1503 1506 1509 1511 1513 1516 1518 1520 1523 1526 1528 1530 1533 1535 1537 1539 1541 1543 1545 1547 1549 1550 1552 1553 1554 1555 1557 1558 1559 1560 1561 1562 1563 1564 1565 1565 1566 1566 1567 1568 1569 1570 1570 1571 1571 1573 1573 1573 1573 1574 1575 1576 1576 1577 1577 1578 1579 1579 1579 1579 1579 1578 1577 1575 1574 1575 1577 1577 1577 1577 1577 1576 1576 1576 1575 1574 1574 1573 1573 1573 1572
1487 1490 1493 1497 1499 1502 1505 1508 1510 1513 1515 1518 1520 1523 1525 1527 1529 1532 1534 1536 1538 1540 1542 1543 1545 1547 1548 1549 1551 1552 1554 1555 1556 1557 1559 1560 1561 1562 1562 1562 1563 1563 1564 1565 1566 1567 1568 1568 1569 1570 1570 1570 1570 1571 1572 1573 1574 1575 1575 1576 1577 1576 1576 1576 1576 1575 1574 1573 1572 1572 1573 1573 1573 1574 1574 1574 1573 1572 1572 1570 1569 1569 1568 1568 1567
1484 1487 1490 1493 1495 1498 1501 1504 1507 1510 1512 1515 1518 1520 1522 1524 1526 1528 1531 1533 1535 1537 1538 1540 1541 1543 1544 1546 1547 1549 1550 1552 1553 1554 1556 1557 1558 1558 1559 1559 1560 1561 1561 1562 1563 1564 1565 1565 1566 1566 1567 1567 1567 1568 1569 1571 1572 1573 1573 1574 1574 1573 1572 1572 1573 1573 1572 1571 1570 1570 1569 1569 1569 1569 1570 1570 1569 1568 1567 1566 1564 1563 1564 1563 1563
1480 1483 1486 1489 1491 1494 1497 1501 1504 1507 1510 1512 1515 1517 1519 1521 1522 1525 1527 1529 1531 1533 1535 1537 1538 1540 1541 1542 1543 1545 1547 1548 1549 1551 1552 1553 1554 1555 1555 1556 1557 1557 1558 1559 1560 1561 1562 1562 1563 1563 1563 1564 1564 1565 1566 1568 1569 1569 1571 1572 1572 1570 1569 1569 1569 1570 1570 1569 1568 1567 1566 1565 1565 1565 1565 1565 1564 1562 1562 1562 1560 1559 1560 1559 1559
1477 1480 1483 1485 1488 1491 1495 1498 1501 1504 1507 1509 1511 1513 1515 1517 1519 1521 1523 1525 1527 1529 1531 1533 1535 1536 1538 1539 1540 1541 1543 1544 1545 1547 1548 1549 1550 1551 1552 1553 1553 1554 1555 1556 1557 1558 1558 1559 1559 1560 1560 1560 1561 1562 1563 1565 1565 1566 1567 1568 1568 1567 1566 1566 1566 1567 1566 1565 1564 1563 1562 1561 1560 1560 1560 1559 1558 1558 1559 1558 1556 1555 1556 1555 1554
1473 1476 1479 1481 1485 1489 1492 1495 1498 1500 1503 1505 1508 1510 1512 1514 1516 1518 1519 1521 1523 1525 1527 1529 1531 1532 1534 1535 1536 1538 1539 1540 1541 1543 1544 1546 1547 1548 1549 1549 1550 1551 1552 1553 1553 1554 1555 1555 1556 1556 1557 1557 1558 1559 1560 1561 1562 1562 1563 1564 1564 1563 1562 1563 1563 1564 1563 1561 1559 1559 1557 1555 1555 1556 1555 1554 1555 1555 1555 1554 1552 1552 1553 1551 1548
1470 1473 1476 1479 1483 1486 1489 1492 1494 1497 1499 1502 1504 1506 1509 1511 1512 1514 1516 1517 1519 1522 1523 1525 1526 1528 1529 1531 1532 1533 1534 1536 1537 1539 1541 1542 1543 1544 1545 1546 1547 1548 1548 1549 1550 1550 1551 1552 1552 1553 1553 1554 1554 1555 1556 1557 1558 1558 1559 1559 1559 1559 1558 1559 1559 1560 1559 1556 1554 1554 1552 1549 1550 1552 1551 1551 1551 1551 1551 1551 1549 1549 1549 1547 1543
1468 1471 1474 1477 1480 1483 1486 1488 1491 1493 1495 1498 1500 1503 1505 1507 1508 1510 1512 1513 1516 1518 1519 1520 1522 1524 1525 1526 1528 1529 1530 1532 1534 1536 1537 1538 1540 1541 1542 1543 1543 1544 1545 1545 1546 1547 1547 1548 1548 1548 1549 1549 1550 1551 1552 1553 1554 1554 1555 1556 1556 1555 1555 1555 1555 1555 1554 1551 1549 1548 1547 1546 1546 1547 1548 1548 1548 1547 1547 1547 1546 1545 1545 1543 1540
1466 1469 1472 1475 1477 1480 1483 1485 1487 1490 1492 1494 1497 1499 1501 1502 1504 1506 1508 1510 1512 1513 1514 1516 1518 1520 1521 1522 1523 1524 1526 1528 1530 1532 1533 1535 1537 1538 1539 1540 1540 1541 1541 1542 1542 1543 1543 1544 1544 1544 1544 1545 1546 1547 1548 1549 1549 1550 1550 1551 1551 1550 1550 1550 1550 1550 1549 1547 1545 1543 1543 1544 1543 1542 1544 1545 1544 1544 1544 1543 1542 1541 1540 1538 1536
1464 1466 1469 1471 1474 1477 1480 1482 1484 1487 1489 1491 1493 1495 1496 1498 1500 1502 1504 1506 1508 1508 1510 1512 1513 1515 1517 1518 1519 1520 1521 1523 1525 1527 1529 1531 1533 1535 1536 1537 1537 1537 1538 1538 1539 1539 1539 1539 1539 1539 1540 1541 1542 1543 1544 1545 1545 1545 1546 1545 1545 1545 1545 1544 1545 1546 1545 1544 1541 1539 1540 1541 1540 1539 1541 1542 1540 1539 1539 1538 1537 1536 1534 1533 1532
1461 1463 1466 1468 1471 1474 1476 1479 1481 1483 1485 1488 1489 1491 1493 1494 1496 1498 1500 1502 1503 1504 1506 1507 1508 1510 1512 1514 1515 1516 1517 1519 1521 1523 1525 1527 1530 1531 1533 1534 1534 1534 1534 1534 1535 1535 1535 1536 1535 1535 1536 1537 1538 1539 1540 1541 1541 1541 1540 1540 1540 1540 1539 1538 1540 1541 1541 1540 1539 1537 1536 1537 1537 1537 1537 1537 1535 1534 1534 1533 1532 1530 1529 1528 1526
1458 1461 1463 1466 1468 1471 1473 1476 1478 1480 1482 1484 1485 1487 1489 1491 1493 1494 1496 1497 1499 1500 1501 1502 1504 1506 1507 1509 1511 1511 1512 1515 1518 1519 1521 1524 1526 1528 1529 1530 1530 1530 1530 1531 1531 1531 1531 1532 1531 1532 1532 1533 1534 1536 1537 1538 1537 1536 1535 1534 1535 1534 1532 1533 1535 1536 1537 1537 1535 1534 1532 1532 1534 1533 1533 1532 1530 1528 1529 1527 1525 1525 1524 1522 1519
1455 1458 1461 1463 1466 1468 1470 1472 1474 1476 1478 1480 1481 1483 1485 1487 1489 1491 1492 1493 1494 1495 1497 1498 1500 1502 1503 1505 1506 1506 1508 1511 1514 1515 1517 1520 1522 1523 1525 1525 1526 1526 1526 1527 1527 1527 1527 1528 1528 1528 1528 1529 1530 1532 1533 1534 1533 1532 1530 1530 1530 1528 1526 1528 1530 1531 1533 1533 1531 1528 1527 1527 1528 1528 1527 1527 1525 1524 1525 1521 1518 1519 1519 1515 1511
1453 1455 1458 1461 1464 1465 1467 1469 1471 1473 1474 1476 1478 1480 1481 1483 1485 1487 1488 1489 1490 1492 1493 1495 1497 1498 1499 1501 1502 1503 1505 1507 1510 1511 1513 1516 1518 1519 1521 1521 1521 1521 1522 1523 1523 1523 1523 1524 1524 1525 1524 1525 1527 1528 1529 1530 1528 1527 1526 1526 1524 1522 1522 1524 1525 1525 1527 1527 1525 1524 1523 1522 1522 1521 1520 1519 1518 1520 1520 1515 1512 1513 1512 1507 1504
1450 1452 1455 1458 1461 1463 1464 1465 1467 1469 1471 1472 1474 1476 1478 1480 1481 1483 1484 1485 1487 1488 1490 1491 1493 1494 1495 1497 1499 1500 1501 1503 1506 1507 1510 1512 1514 1515 1517 1517 1517 1517 1518 1519 1519 1519 1519 1520 1521 1521 1521 1522 1523 1524 1526 1526 1524 1523 1523 1522 1519 1517 1519 1521 1520 1520 1523 1522 1518 1516 1516 1516 1516 1514 1512 1511 1511 1513 1512 1508 1506 1507 1504 1500 1502
1449 1451 1453 1454 1457 1459 1461 1463 1464 1466 1467 1469 1471 1473 1474 1476 1478 1479 1480 1482 1483 1485 1486 1488 1489 1491 1492 1494 1495 1497 1498 1500 1502 1504 1506 1508 1510 1512 1513 1512 1512 1513 1514 1515 1515 1515 1515 1516 1516 1517 1518 1518 1519 1520 1521 1522 1520 1519 1519 1517 1514 1513 1515 1516 1513 1516 1521 1517 1511 1510 1510 1509 1507 1505 1504 1504 1504 1504 1503 1500 1500 1500 1499 1497 1497
1448 1449 1451 1452 1453 1455 1457 1459 1461 1463 1464 1466 1468 1470 1471 1473 1475 1476 1477 1478 1480 1481 1483 1484 1485 1487 1489 1491 1492 1493 1494 1496 1498 1500 1502 1504 1506 1508 1508 1507 1508 1510 1510 1510 1510 1510 1511 1511 1512 1513 1514 1514 1514 1515 1516 1517 1516 1515 1513 1512 1511 1511 1512 1511 1508 1513 1518 1512 1506 1506 1505 1501 1499 1498 1497 1497 1496 1495 1494 1492 1491 1492 1492 1492 1490
1445 1447 1448 1449 1450 1452 1454 1456 1458 1460 1462 1463 1465 1466 1468 1470 1471 1472 1474 1475 1476 1478 1479 1481 1482 1484 1486 1488 1489 1490 1491 1493 1494 1496 1499 1501 1502 1504 1503 1504 1505 1507 1506 1506 1506 1507 1507 1508 1509 1510 1511 1511 1511 1511 1512 1513 1513 1511 1509 1509 1508 1507 1508 1505 1502 1508 1513 1507 1501 1501 1498 1495 1494 1493 1492 1491 1489 1488 1487 1484 1483 1482 1482 1481 1481
1443 1444 1446 1447 1448 1449 1451 1452 1454 1457 1459 1461 1462 1462 1464 1466 1467 1469 1470 1471 1473 1474 1476 1478 1479 1480 1482 1484 1485 1487 1489 1490 1491 1493 1495 1497 1498 1499 1500 1501 1503 1504 1503 1502 1503 1505 1505 1506 1507 1507 1508 1508 1508 1508 1509 1509 1509 1508 1507 1506 1505 1504 1504 1500 1497 1503 1507 1502 1497 1496 1494 1492 1491 1488 1487 1486 1484 1483 1480 1478 1476 1475 1473 1471 1470
1441 1442 1443 1444 1445 1447 1448 1449 1451 1453 1455 1457 1458 1459 1461 1462 1463 1465 1466 1468 1469 1471 1472 1474 1476 1477 1478 1480 1482 1484 1485 1487 1488 1489 1491 1493 1494 1495 1497 1498 1500 1500 1500 1500 1501 1502 1503 1503 1504 1504 1504 1505 1505 1505 1505 1505 1505 1504 1503 1503 1501 1499 1498 1494 1492 1497 1500 1497 1493 1492 1490 1488 1487 1484 1482 1482 1480 1477 1474 1471 1470 1469 1465 1462 1459
1438 1440 1441 1442 1443 1444 1445 1447 1448 1449 1451 1453 1455 1456 1458 1459 1460 1461 1463 1464 1466 1467 1469 1471 1472 1473 1475 1477 1478 1481 1482 1484 1485 1486 1488 1489 1490 1492 1493 1495 1496 1497 1497 1497 1498 1499 1499 1500 1501 1501 1501 1502 1502 1502 1502 1501 1501 1500 1500 1499 1497 1496 1494 1490 1488 1491 1492 1491 1490 1488 1486 1484 1483 1480 1478 1477 1474 1471 1467 1465 1463 1461 1457 1454 1451
1436 1437 1438 1439 1440 1441 1442 1443 1445 1446 1448 1449 1451 1453 1454 1456 1457 1458 1460 1461 1462 1464 1465 1467 1469 1470 1472 1473 1475 1478 1479 1481 1482 1483 1484 1486 1487 1489 1490 1491 1493 1493 1493 1494 1496 1497 1497 1497 1497 1498 1498 1499 1498 1498 1498 1498 1497 1497 1496 1495 1494 1493 1491 1488 1485 1486 1487 1486 1485 1483 1481 1480 1478 1476 1474 1472 1469 1465 1462 1459 1456 1453 1450 1447 1443
1433 1434 1435 1437 1438 1439 1439 1440 1442 1443 1445 1446 1448 1449 1451 1453 1454 1455 1456 1458 1459 1461 1462 1464 1466 1467 1469 1470 1472 1474 1476 1477 1478 1480 1481 1483 1484 1486 1487 1488 1489 1490 1490 1491 1493 1494 1494 1494 1494 1495 1495 1495 1495 1495 1495 1495 1494 1493 1493 1492 1491 1489 1488 1485 1483 1482 1482 1482 1481 1478 1477 1476 1473 1471 1469 1467 1463 1460 1457 1454 1449 1444 1442 1440 1435
1431 1432 1433 1434 1435 1436 1437 1438 1439 1440 1442 1443 1445 1446 1448 1449 1451 1452 1453 1455 1457 1458 1459 1461 1462 1464 1466 1468 1470 1471 1473 1474 1475 1476 1478 1480 1481 1482 1483 1484 1486 1487 1488 1489 1490 1490 1491 1491 1492 1492 1492 1492 1492 1492 1492 1491 1491 1491 1490 1489 1488 1486 1485 1484 1482 1480 1479 1478 1477 1475 1473 1471 1468 1466 1463 1460 1457 1454 1451 1447 1442 1436 1434 1433 1428
1429 1430 1431 1432 1433 1434 1435 1435 1436 1437 1439 1440 1441 1443 1444 1446 1448 1449 1451 1452 1454 1456 1457 1459 1460 1462 1464 1466 1467 1468 1469 1471 1473 1474 1475 1476 1478 1479 1480 1481 1483 1484 1485 1486 1487 1488 1488 1488 1489 1489 1489 1490 1490 1489 1489 1489 1489 1488 1487 1486 1485 1484 1482 1481 1480 1479 1477 1475 1474 1472 1469 1467 1464 1462 1459 1455 1451 1449 1445 1440 1435 1431 1428 1426 1422
1427 1428 1429 1430 1431 1432 1433 1433 1434 1435 1436 1437 1439 1440 1442 1443 1445 1447 1448 1450 1452 1453 1455 1457 1458 1460 1462 1463 1464 1466 1467 1469 1470 1471 1472 1474 1475 1476 1477 1479 1480 1481 1482 1483 1484 1485 1485 1485 1486 1486 1487 1487 1487 1487 1486 1486 1486 1486 1485 1484 1482 1481 1480 1479 1478 1477 1475 1472 1470 1468 1466 1463 1461 1458 1455 1451 1448 1444 1441 1436 1430 1426 1422 1420 1416
1426 1427 1428 1428 1429 1430 1431 1432 1432 1433 1434 1435 1436 1438 1439 1441 1443 1444 1446 1448 1450 1451 1453 1455 1457 1459 1460 1461 1462 1464 1465 1466 1468 1469 1470 1471 1472 1474 1475 1476 1477 1478 1480 1481 1481 1482 1482 1483 1483 1484 1484 1484 1484 1484 1483 1483 1483 1482 1482 1481 1480 1479 1478 1477 1476 1474 1472 1470 1468 1465 1463 1460 1457 1455 1452 1448 1444 1440 1436 1431 1426 1421 1417 1415 1412
1424 1426 1427 1427 1428 1429 1430 1430 1431 1431 1432 1433 1434 1436 1438 1439 1441 1442 1444 1446 1448 1449 1451 1453 1455 1456 1458 1459 1461 1462 1463 1464 1465 1466 1468 1469 1470 1472 1473 1474 1475 1476 1477 1478 1479 1479 1480 1481 1481 1481 1481 1481 1481 1481 1481 1480 1480 1480 1480 1479 1478 1477 1476 1474 1473 1471 1469 1467 1465 1463 1460 1457 1455 1452 1448 1444 1440 1435 1431 1426 1421 1416 1412 1410 1408
1423 1424 1425 1426 1427 1428 1429 1429 1430 1430 1431 1432 1433 1435 1436 1438 1439 1441 1442 1444 1445 1447 1449 1450 1452 1454 1456 1457 1459 1460 1461 1462 1463 1464 1466 1467 1468 1470 1471 1472 1473 1474 1475 1476 1477 1477 1478 1478 1479 1479 1479 1479 1479 1479 1479 1479 1478 1478 1477 1477 1476 1475 1473 1471 1470 1469 1467 1465 1463 1460 1458 1455 1452 1449 1446 1442 1437 1432 1427 1423 1418 1414 1410 1407 1405
1423 1423 1424 1425 1426 1427 1428 1428 1429 1430 1430 1431 1432 1434 1435 1436 1438 1439 1441 1442 1443 1445 1447 1448 1450 1452 1454 1455 1457 1458 1459 1460 1461 1463 1464 1465 1467 1468 1469 1470 1471 1472 1473 1474 1474 1475 1476 1476 1476 1477 1477 1477 1477 1477 1477 1477 1477 1476 1475 1475 1474 1472 1471 1470 1468 1467 1465 1463 1461 1459 1456 1453 1450 1446 1443 1439 1435 1430 1425 1420 1416 1412 1408 1405 1403
1422 1422 1423 1424 1425 1426 1427 1427 1428 1429 1430 1430 1431 1433 1434 1435 1437 1438 1439 1440 1442 1443 1445 1446 1448 1450 1452 1453 1455 1457 1458 1459 1460 1462 1463 1464 1466 1467 1468 1469 1470 1471 1472 1472 1473 1473 1474 1474 1475 1475 1475 1475 1475 1476 1475 1475 1475 1474 1473 1473 1472 1471 1470 1468 1467 1465 1463 1461 1459 1457 1455 1452 1449 1446 1442 1438 1434 1429 1424 1419 1415 1411 1408 1405 1401
1420 1421 1422 1423 1424 1425 1425 1426 1427 1428 1429 1430 1431 1432 1433 1434 1435 1437 1438 1439 1440 1442 1443 1444 1446 1448 1450 1452 1453 1455 1457 1458 1459 1461 1462 1463 1465 1466 1467 1468 1469 1469 1470 1471 1472 1472 1473 1473 1473 1474 1474 1474 1474 1474 1473 1473 1472 1472 1471 1471 1470 1469 1468 1467 1465 1463 1462 1460 1459 1457 1454 1451 1448 1445 1441 1437 1433 1429 1424 1420 1416 1413 1410 1406 1402
1419 1420 1421 1422 1423 1423 1423 1424 1425 1426 1427 1428 1429 1430 1432 1433 1434 1435 1436 1438 1439 1440 1441 1443 1444 1446 1448 1450 1452 1454 1455 1457 1458 1460 1461 1463 1464 1465 1466 1467 1468 1469 1469 1470 1471 1471 1472 1472 1472 1472 1472 1472 1472 1472 1472 1472 1471 1471 1470 1469 1469 1468 1467 1465 1464 1463 1461 1460 1458 1456 1454 1451 1448 1445 1442 1438 1434 1430 1426 1422 1419 1417 1414 1410 1405
1418 1418 1419 1420 1421 1421 1422 1422 1423 1423 1425 1426 1427 1428 1430 1431 1432 1433 1435 1436 1438 1439 1440 1440 1441 1443 1444 1447 1449 1451 1453 1455 1457 1459 1460 1461 1463 1464 1465 1466 1467 1468 1469 1469 1470 1470 1471 1471 1471 1471 1471 1471 1471 1471 1471 1471 1470 1470 1469 1469 1468 1467 1466 1465 1463 1462 1461 1460 1459 1457 1454 1451 1449 1446 1443 1439 1436 1432 1429 1426 1423 1422 1419 1415 1411
1417 1417 1418 1419 1419 1420 1420 1421 1421 1421 1422 1424 1425 1427 1428 1429 1430 1430 1432 1434 1436 1438 1439 1440 1440 1441 1443 1444 1446 1449 1451 1453 1455 1457 1459 1460 1462 1463 1464 1466 1467 1467 1468 1469 1469 1470 1470 1470 1471 1471 1471 1471 1471 1471 1470 1470 1470 1469 1468 1468 1467 1466 1465 1464 1463 1462 1461 1461 1459 1457 1455 1452 1450 1448 1445 1442 1439 1436 1433 1431 1429 1427 1425 1421 1416
1416 1416 1417 1417 1418 1419 1419 1419 1419 1420 1420 1422 1423 1425 1426 1427 1428 1429 1431 1433 1435 1437 1439 1442 1442 1443 1445 1446 1447 1449 1451 1453 1454 1456 1458 1460 1461 1463 1464 1466 1466 1467 1467 1468 1469 1469 1470 1470 1470 1470 1470 1470 1470 1470 1470 1470 1469 1468 1468 1468 1467 1466 1465 1464 1463 1463 1462 1462 1460 1458 1456 1453 1451 1450 1447 1445 1442 1440 1438 1436 1434 1432 1430 1428 1423
1415 1415 1416 1416 1417 1417 1418 1418 1418 1418 1419 1420 1421 1422 1422 1424 1426 1429 1431 1434 1437 1439 1441 1443 1444 1445 1447 1448 1449 1450 1452 1453 1455 1456 1458 1459 1461 1463 1464 1465 1466 1467 1467 1468 1468 1469 1470 1470 1470 1470 1470 1470 1470 1470 1469 1469 1469 1468 1468 1467 1467 1466 1466 1465 1465 1464 1464 1463 1461 1459 1456 1455 1453 1452 1450 1448 1446 1444 1443 1441 1439 1438 1437 1435 1432
1413 1414 1415 1415 1416 1416 1416 1416 1416 1417 1418 1419 1420 1421 1422 1423 1425 1428 1430 1433 1437 1441 1442 1443 1445 1446 1448 1449 1450 1451 1452 1454 1455 1457 1458 1460 1461 1463 1464 1465 1466 1466 1467 1468 1468 1469 1470 1470 1470 1470 1470 1470 1470 1469 1469 1469 1468 1468 1468 1468 1467 1467 1467 1467 1466 1466 1465 1464 1462 1460 1458 1456 1455 1454 1453 1451 1450 1448 1446 1445 1443 1442 1441 1440 1438
1412 1412 1413 1414 1414 1414 1415 1415 1415 1416 1418 1419 1419 1421 1423 1423 1424 1427 1430 1432 1436 1440 1441 1442 1444 1446 1448 1450 1450 1450 1452 1454 1456 1457 1458 1460 1461 1462 1464 1464 1465 1466 1467 1468 1468 1469 1469 1470 1470 1470 1470 1470 1469 1469 1469 1469 1468 1468 1468 1468 1468 1468 1468 1467 1467 1466 1466 1465 1463 1461 1459 1458 1456 1456 1455 1454 1453 1451 1449 1448 1446 1445 1444 1443 1441
1410 1411 1411 1413 1413 1413 1414 1414 1414 1415 1416 1417 1418 1420 1422 1423 1424 1427 1430 1433 1436 1439 1441 1442 1444 1446 1448 1449 1450 1451 1452 1454 1456 1457 1458 1459 1461 1462 1463 1464 1464 1465 1466 1467 1467 1468 1468 1468 1468 1469 1469 1469 1469 1469 1469 1469 1468 1468 1468 1468 1468 1468 1468 1468 1467 1466 1465 1464 1463 1462 1460 1459 1458 1457 1456 1456 1455 1454 1452 1451 1449 1448 1447 1446 1445
1408 1409 1410 1411 1411 1412 1413 1413 1413 1414 1415 1416 1418 1419 1421 1423 1425 1428 1431 1434 1436 1438 1440 1442 1444 1447 1448 1449 1449 1451 1452 1454 1456 1457 1458 1459 1460 1461 1462 1463 1463 1464 1465 1465 1466 1466 1467 1467 1467 1467 1467 1467 1468 1468 1468 1468 1468 1467 1467 1467 1467 1468 1467 1467 1466 1466 1465 1464 1463 1462 1461 1460 1459 1458 1457 1456 1456 1455 1454 1453 1452 1451 1450 1449 1448
1407 1407 1408 1409 1410 1411 1412 1412 1412 1413 1414 1416 1418 1420 1422 1425 1428 1430 1432 1434 1436 1437 1439 1442 1445 1447 1448 1449 1450 1452 1453 1454 1456 1457 1458 1459 1460 1460 1461 1462 1463 1463 1464 1465 1465 1465 1466 1466 1466 1466 1466 1466 1466 1466 1466 1466 1466 1466 1466 1466 1466 1466 1466 1466 1465 1465 1464 1463 1462 1461 1461 1460 1459 1458 1457 1456 1456 1455 1454 1453 1452 1451 1451 1450 1449
1405 1406 1406 1408 1409 1410 1411 1412 1412 1413 1414 1416 1418 1420 1422 1425 1428 1431 1433 1435 1436 1438 1440 1443 1445 1446 1448 1449 1450 1452 1453 1454 1456 1457 1458 1459 1459 1460 1461 1462 1462 1463 1464 1464 1464 1465 1465 1465 1465 1465 1465 1465 1464 1464 1464 1464 1464 1465 1465 1465 1465 1465 1465 1464 1464 1464 1463 1462 1461 1460 1460 1459 1458 1457 1457 1456 1455 1455 1454 1453 1452 1451 1451 1450 1450
1405 1406 1406 1406 1407 1408 1410 1412 1412 1413 1414 1416 1418 1421 1423 1425 1428 1431 1433 1435 1437 1439 1441 1443 1444 1446 1447 1448 1450 1451 1453 1454 1455 1456 1457 1458 1459 1460 1461 1461 1462 1462 1463 1463 1464 1464 1464 1465 1464 1464 1464 1464 1463 1463 1463 1463 1463 1464 1464 1465 1464 1464 1464 1463 1463 1462 1462 1461 1460 1459 1459 1458 1457 1457 1456 1456 1455 1454 1454 1453 1452 1451 1451 1450 1449
1406 1407 1406 1406 1406 1408 1412 1414 1414 1414 1415 1418 1420 1422 1424 1427 1429 1431 1433 1435 1437 1439 1441 1442 1443 1445 1446 1448 1449 1451 1452 1453 1454 1456 1456 1457 1458 1459 1459 1460 1461 1461 1462 1462 1463 1463 1463 1463 1463 1463 1462 1462 1462 1462 1462 1463 1463 1463 1464 1464 1463 1463 1463 1462 1462 1461 1460 1460 1459 1458 1458 1457 1456 1456 1455 1455 1455 1454 1454 1453 1452 1452 1451 1450 1449
1412 1412 1410 1409 1408 1409 1412 1415 1416 1416 1418 1420 1421 1423 1425 1428 1430 1432 1434 1436 1437 1439 1441 1442 1443 1444 1446 1447 1449 1450 1452 1453 1454 1455 1456 1456 1457 1457 1458 1458 1459 1459 1460 1461 1461 1461 1461 1461 1461 1461 1461 1461 1461 1461 1462 1462 1462 1463 1463 1463 1462 1462 1462 1461 1461 1460 1460 1459 1458 1458 1457 1456 1455 1455 1454 1454 1454 1453 1453 1453 1452 1451 1451 1450 1449
1422 1421 1419 1415 1412 1411 1413 1417 1419 1419 1420 1421 1423 1425 1427 1429 1431 1433 1435 1436 1438 1439 1441 1442 1443 1445 1446 1447 1449 1450 1451 1452 1453 1454 1455 1455 1456 1456 1456 1457 1458 1458 1458 1459 1459 1459 1459 1459 1459 1459 1460 1460 1460 1460 1460 1460 1461 1461 1461 1461 1461 1460 1460 1460 1460 1459 1459 1458 1457 1457 1456 1455 1454 1454 1453 1453 1453 1452 1452 1452 1451 1451 1450 1450 1449